Wichita Mid Continent Airport Wichita US
ICAO: KICT
IATA: ICT
Category: Large
Scheduled Services: Yes

Elevation: 1333 ft
TransAlt. 18000 ft.

Airport Communications:
APP:32.71
APP:125.5
ATIS:125.15
CLNC DEL:125.7
DEP:126.7
GND:121.9
RDO:122.2
TWR:118.2
UNICOM:122.95

KICT Zoom In..

If you have problems with the map follow the link
https://www.worldairports.se/pages/airport.php?
ICAO=KICT

Runways:

(A) RW 01L length 10301 ft width 150 ft
ILS 109.10 / hdg 13

(B) RW 01R length 7301 ft width 150 ft
ILS 110.30 / hdg 13

(C) RW 14 length 6301 ft width 151 ft
---- / hdg 143

(D) RW 19L length 7301 ft width 150 ft
ILS 111.55 / hdg 193

(E) RW 19R length 10301 ft width 150 ft
ILS 110.50 / hdg 193

(F) RW 32 length 6301 ft width 151 ft
---- / hdg 323

Location; KICT
Day. 18 / Time. 12.53 Zulu
* Altimeter: 30.23
* Temperature: 00° c. 32°f.
* Wind from: 340° Speed 20 kn with Gusts up to 30 kn.
Dewpoint: -07° c.
Visibility: 10 Statute Miles.
Clouds: Clear (automated report).

KICT 181253Z 34020G30KT 10SM CLR 00/M07 A3023 RMK AO2 PK WND 32040/1206 PRESRR SLP244 T00001072


Wind From 340°
Speed 20 kn.

 
 
jpsmedia worldairports.se 2020   terms of use